Time,TemperatureF,DewpointF,PressureIn,WindDirection,WindDirectionDegrees,WindSpeedMPH,WindSpeedGustMPH,Humidity,HourlyPrecipIn,Conditions,Clouds,dailyrainin,SoftwareType,DateUTC
2013-01-18 00:00:00,36.0,35.7,30.18,WNW,298,0.0,0.0,99,0.00,,,0.01,Wunderground v.1.15,2013-01-18 08:00:00,
2013-01-18 00:10:00,36.7,36.4,30.18,WNW,298,0.0,0.0,99,0.00,,,0.00,Wunderground v.1.15,2013-01-18 08:10:00,
2013-01-18 00:20:00,36.9,36.6,30.18,WNW,298,0.0,0.0,99,0.00,,,0.00,Wunderground v.1.15,2013-01-18 08:20:00,
2013-01-18 00:30:00,36.8,36.5,30.17,WNW,298,0.0,0.0,99,0.00,,,0.00,Wunderground v.1.15,2013-01-18 08:30:00,
2013-01-18 00:35:00,36.2,35.9,30.18,WNW,298,0.0,2.0,99,0.00,,,0.00,Wunderground v.1.15,2013-01-18 08:35:00,
2013-01-18 00:45:00,35.2,34.7,30.18,WNW,298,1.0,1.0,98,0.00,,,0.00,Wunderground v.1.15,2013-01-18 08:45:00,
2013-01-18 00:55:00,35.2,34.7,30.17,WNW,298,0.0,0.0,98,0.00,,,0.00,Wunderground v.1.15,2013-01-18 08:55:00,
2013-01-18 01:00:00,35.0,34.5,30.17,WNW,298,0.0,0.0,98,0.00,,,0.00,Wunderground v.1.15,2013-01-18 09:00:00,
2013-01-18 01:10:00,34.6,34.1,30.18,WNW,298,0.0,0.0,98,0.00,,,0.00,Wunderground v.1.15,2013-01-18 09:10:00,
2013-01-18 01:20:00,34.9,34.6,30.18,WNW,298,0.0,0.0,99,0.00,,,0.00,Wunderground v.1.15,2013-01-18 09:20:00,
2013-01-18 01:30:00,35.4,35.1,30.18,WNW,298,0.0,0.0,99,0.00,,,0.00,Wunderground v.1.15,2013-01-18 09:30:00,
2013-01-18 01:40:00,35.5,35.2,30.18,WNW,298,0.0,0.0,99,0.00,,,0.00,Wunderground v.1.15,2013-01-18 09:40:00,
2013-01-18 01:45:00,35.3,35.0,30.18,WNW,298,0.0,0.0,99,0.00,,,0.00,Wunderground v.1.15,2013-01-18 09:45:00,
2013-01-18 01:55:00,34.8,34.5,30.18,WNW,298,0.0,0.0,99,0.00,,,0.00,Wunderground v.1.15,2013-01-18 09:55:00,
2013-01-18 02:00:00,34.4,33.9,30.18,WNW,298,0.0,0.0,98,0.00,,,0.00,Wunderground v.1.15,2013-01-18 10:00:00,
2013-01-18 02:10:00,34.0,33.5,30.18,WNW,298,0.0,0.0,98,0.00,,,0.00,Wunderground v.1.15,2013-01-18 10:10:00,
2013-01-18 02:20:00,33.7,33.2,30.18,WNW,298,0.0,0.0,98,0.00,,,0.00,Wunderground v.1.15,2013-01-18 10:20:00,
2013-01-18 02:25:00,33.6,33.1,30.18,WNW,298,0.0,0.0,98,0.00,,,0.00,Wunderground v.1.15,2013-01-18 10:25:00,
2013-01-18 02:35:00,33.1,32.6,30.18,WNW,298,0.0,0.0,98,0.00,,,0.00,Wunderground v.1.15,2013-01-18 10:35:00,
2013-01-18 02:45:00,32.7,32.2,30.17,WNW,298,0.0,0.0,98,0.00,,,0.00,Wunderground v.1.15,2013-01-18 10:45:00,
2013-01-18 02:50:00,32.4,31.9,30.17,WNW,298,0.0,0.0,98,0.00,,,0.00,Wunderground v.1.15,2013-01-18 10:50:00,
2013-01-18 03:00:00,32.0,31.5,30.17,WNW,298,0.0,0.0,98,0.00,,,0.00,Wunderground v.1.15,2013-01-18 11:00:00,
2013-01-18 03:10:00,31.6,31.1,30.17,WNW,298,0.0,0.0,98,0.00,,,0.00,Wunderground v.1.15,2013-01-18 11:10:00,
2013-01-18 03:20:00,31.3,30.8,30.17,WNW,298,0.0,0.0,98,0.00,,,0.00,Wunderground v.1.15,2013-01-18 11:20:00,
2013-01-18 03:25:00,31.3,30.8,30.17,WNW,298,0.0,0.0,98,0.00,,,0.00,Wunderground v.1.15,2013-01-18 11:25:00,
2013-01-18 03:30:00,31.2,30.7,30.17,WNW,298,0.0,0.0,98,0.00,,,0.00,Wunderground v.1.15,2013-01-18 11:30:00,
2013-01-18 03:40:00,31.2,30.7,30.17,WNW,298,0.0,0.0,98,0.00,,,0.00,Wunderground v.1.15,2013-01-18 11:40:00,
2013-01-18 03:45:00,31.2,30.7,30.17,WNW,298,0.0,0.0,98,0.00,,,0.00,Wunderground v.1.15,2013-01-18 11:45:00,
2013-01-18 03:55:00,31.1,30.6,30.16,WNW,298,0.0,0.0,98,0.00,,,0.00,Wunderground v.1.15,2013-01-18 11:55:00,
2013-01-18 04:00:00,31.4,30.9,30.16,WNW,298,0.0,0.0,98,0.00,,,0.00,Wunderground v.1.15,2013-01-18 12:00:00,
2013-01-18 04:10:00,31.5,31.3,30.17,WNW,298,0.0,0.0,99,0.00,,,0.00,Wunderground v.1.15,2013-01-18 12:10:00,
2013-01-18 04:20:00,31.4,30.9,30.17,WNW,298,0.0,0.0,98,0.00,,,0.00,Wunderground v.1.15,2013-01-18 12:20:00,
2013-01-18 04:30:00,30.8,30.3,30.17,WNW,298,0.0,0.0,98,0.00,,,0.00,Wunderground v.1.15,2013-01-18 12:30:00,
2013-01-18 04:40:00,30.3,29.8,30.17,WNW,298,0.0,0.0,98,0.00,,,0.00,Wunderground v.1.15,2013-01-18 12:40:00,
2013-01-18 04:50:00,30.3,29.8,30.17,WNW,298,0.0,0.0,98,0.00,,,0.00,Wunderground v.1.15,2013-01-18 12:50:00,
2013-01-18 05:00:00,30.4,29.9,30.17,WNW,298,0.0,0.0,98,0.00,,,0.00,Wunderground v.1.15,2013-01-18 13:00:00,
2013-01-18 05:10:00,30.4,29.9,30.17,WNW,298,0.0,0.0,98,0.00,,,0.00,Wunderground v.1.15,2013-01-18 13:10:00,
2013-01-18 05:20:00,30.2,29.7,30.17,WNW,298,0.0,0.0,98,0.00,,,0.00,Wunderground v.1.15,2013-01-18 13:20:00,
2013-01-18 05:25:00,30.1,29.6,30.17,WNW,298,0.0,0.0,98,0.00,,,0.00,Wunderground v.1.15,2013-01-18 13:25:00,
2013-01-18 05:35:00,30.0,29.8,30.17,WNW,298,0.0,0.0,99,0.00,,,0.00,Wunderground v.1.15,2013-01-18 13:35:00,
2013-01-18 05:45:00,29.8,29.6,30.17,WNW,298,0.0,0.0,99,0.00,,,0.00,Wunderground v.1.15,2013-01-18 13:45:00,
2013-01-18 05:55:00,29.4,28.9,30.17,WNW,298,0.0,0.0,98,0.00,,,0.00,Wunderground v.1.15,2013-01-18 13:55:00,
2013-01-18 06:00:00,29.1,28.6,30.17,WNW,298,0.0,0.0,98,0.00,,,0.00,Wunderground v.1.15,2013-01-18 14:00:00,
2013-01-18 06:10:00,28.7,28.2,30.17,WNW,298,0.0,0.0,98,0.00,,,0.00,Wunderground v.1.15,2013-01-18 14:10:00,
2013-01-18 06:20:00,28.3,27.8,30.17,WNW,298,0.0,0.0,98,0.00,,,0.00,Wunderground v.1.15,2013-01-18 14:20:00,
2013-01-18 06:30:00,28.2,27.7,30.17,WNW,298,0.0,0.0,98,0.00,,,0.00,Wunderground v.1.15,2013-01-18 14:30:00,
2013-01-18 06:40:00,28.1,27.6,30.17,WNW,298,0.0,0.0,98,0.00,,,0.00,Wunderground v.1.15,2013-01-18 14:40:00,
2013-01-18 06:50:00,28.0,27.5,30.17,WNW,298,0.0,0.0,98,0.00,,,0.00,Wunderground v.1.15,2013-01-18 14:50:00,
2013-01-18 06:55:00,28.0,27.5,30.17,WNW,298,0.0,0.0,98,0.00,,,0.00,Wunderground v.1.15,2013-01-18 14:55:00,
2013-01-18 07:00:00,28.0,27.5,30.18,WNW,298,0.0,0.0,98,0.00,,,0.00,Wunderground v.1.15,2013-01-18 15:00:00,
2013-01-18 07:10:00,28.2,27.7,30.18,WNW,298,0.0,0.0,98,0.00,,,0.00,Wunderground v.1.15,2013-01-18 15:10:00,
2013-01-18 07:20:00,28.3,27.8,30.18,WNW,298,0.0,0.0,98,0.00,,,0.00,Wunderground v.1.15,2013-01-18 15:20:00,
2013-01-18 07:30:00,28.1,27.6,30.18,WNW,298,0.0,0.0,98,0.00,,,0.00,Wunderground v.1.15,2013-01-18 15:30:00,
2013-01-18 07:40:00,27.7,27.2,30.19,WNW,298,0.0,0.0,98,0.00,,,0.00,Wunderground v.1.15,2013-01-18 15:40:00,
2013-01-18 07:45:00,27.6,27.1,30.19,WNW,298,0.0,0.0,98,0.00,,,0.00,Wunderground v.1.15,2013-01-18 15:45:00,
2013-01-18 07:55:00,27.5,27.0,30.19,WNW,298,0.0,0.0,98,0.00,,,0.00,Wunderground v.1.15,2013-01-18 15:55:00,
2013-01-18 08:00:00,27.5,27.0,30.19,WNW,298,0.0,0.0,98,0.00,,,0.00,Wunderground v.1.15,2013-01-18 16:00:00,
2013-01-18 08:10:00,27.8,27.3,30.20,WNW,298,0.0,0.0,98,0.00,,,0.00,Wunderground v.1.15,2013-01-18 16:10:00,
2013-01-18 08:15:00,28.0,27.5,30.20,WNW,298,0.0,0.0,98,0.00,,,0.00,Wunderground v.1.15,2013-01-18 16:15:00,
2013-01-18 08:25:00,28.0,27.5,30.20,WNW,298,0.0,0.0,98,0.00,,,0.00,Wunderground v.1.15,2013-01-18 16:25:00,
2013-01-18 08:30:00,28.1,27.6,30.20,WNW,298,0.0,0.0,98,0.00,,,0.00,Wunderground v.1.15,2013-01-18 16:30:00,
2013-01-18 08:40:00,28.0,27.5,30.21,WNW,298,0.0,0.0,98,0.00,,,0.00,Wunderground v.1.15,2013-01-18 16:40:00,
2013-01-18 08:50:00,28.3,27.8,30.21,WNW,298,0.0,0.0,98,0.00,,,0.00,Wunderground v.1.15,2013-01-18 16:50:00,
2013-01-18 09:00:00,28.8,28.3,30.21,WNW,298,0.0,0.0,98,0.00,,,0.00,Wunderground v.1.15,2013-01-18 17:00:00,
2013-01-18 09:10:00,29.0,28.8,30.22,WNW,298,0.0,0.0,99,0.00,,,0.00,Wunderground v.1.15,2013-01-18 17:10:00,
2013-01-18 09:15:00,29.1,28.9,30.22,WNW,298,0.0,0.0,99,0.00,,,0.00,Wunderground v.1.15,2013-01-18 17:15:00,
2013-01-18 09:25:00,29.5,29.3,30.22,WNW,298,0.0,0.0,99,0.00,,,0.00,Wunderground v.1.15,2013-01-18 17:25:00,
2013-01-18 09:35:00,30.2,29.7,30.22,WNW,299,0.0,1.0,98,0.00,,,0.00,Wunderground v.1.15,2013-01-18 17:35:00,
2013-01-18 09:45:00,30.7,30.5,30.23,WNW,299,0.0,0.0,99,0.00,,,0.00,Wunderground v.1.15,2013-01-18 17:45:00,
2013-01-18 09:55:00,31.2,30.7,30.22,WNW,299,0.0,0.0,98,0.00,,,0.00,Wunderground v.1.15,2013-01-18 17:55:00,
2013-01-18 10:00:00,31.7,31.5,30.22,WNW,299,0.0,0.0,99,0.00,,,0.00,Wunderground v.1.15,2013-01-18 18:00:00,
2013-01-18 10:10:00,32.4,31.9,30.22,WNW,299,0.0,0.0,98,0.00,,,0.00,Wunderground v.1.15,2013-01-18 18:10:00,
2013-01-18 10:20:00,33.3,33.0,30.23,WNW,299,0.0,0.0,99,0.00,,,0.00,Wunderground v.1.15,2013-01-18 18:20:00,
2013-01-18 10:25:00,33.8,33.5,30.23,WNW,299,0.0,0.0,99,0.00,,,0.00,Wunderground v.1.15,2013-01-18 18:25:00,
2013-01-18 10:35:00,34.7,34.4,30.23,WNW,299,0.0,0.0,99,0.00,,,0.00,Wunderground v.1.15,2013-01-18 18:35:00,
2013-01-18 10:45:00,35.9,35.6,30.23,WNW,299,0.0,0.0,99,0.00,,,0.00,Wunderground v.1.15,2013-01-18 18:45:00,
2013-01-18 10:55:00,36.6,36.3,30.23,WNW,299,0.0,0.0,99,0.00,,,0.00,Wunderground v.1.15,2013-01-18 18:55:00,
2013-01-18 11:00:00,36.9,36.4,30.22,WNW,299,0.0,0.0,98,0.00,,,0.00,Wunderground v.1.15,2013-01-18 19:00:00,
2013-01-18 11:10:00,37.7,37.2,30.22,WNW,299,0.0,0.0,98,0.00,,,0.00,Wunderground v.1.15,2013-01-18 19:10:00,
2013-01-18 11:20:00,38.9,38.4,30.22,SSE,163,0.0,0.0,98,0.00,,,0.00,Wunderground v.1.15,2013-01-18 19:20:00,
2013-01-18 11:25:00,39.1,38.1,30.22,SSE,163,0.0,0.0,96,0.00,,,0.00,Wunderground v.1.15,2013-01-18 19:25:00,
2013-01-18 11:30:00,39.3,38.3,30.22,SSE,163,0.0,0.0,96,0.00,,,0.00,Wunderground v.1.15,2013-01-18 19:30:00,
2013-01-18 11:40:00,39.8,39.0,30.22,WSW,247,0.0,0.0,97,0.00,,,0.00,Wunderground v.1.15,2013-01-18 19:40:00,
2013-01-18 11:50:00,40.9,39.8,30.21,WSW,247,0.0,0.0,96,0.00,,,0.00,Wunderground v.1.15,2013-01-18 19:50:00,
2013-01-18 12:00:00,42.2,40.6,30.20,NNW,341,0.0,0.0,94,0.00,,,0.00,Wunderground v.1.15,2013-01-18 20:00:00,
2013-01-18 12:05:00,42.5,40.9,30.20,NNW,341,0.0,0.0,94,0.00,,,0.00,Wunderground v.1.15,2013-01-18 20:05:00,
2013-01-18 12:15:00,43.4,40.9,30.20,NNW,341,0.0,0.0,91,0.00,,,0.00,Wunderground v.1.15,2013-01-18 20:15:00,
2013-01-18 12:25:00,44.4,41.9,30.19,NNW,345,0.0,0.0,91,0.00,,,0.00,Wunderground v.1.15,2013-01-18 20:25:00,
2013-01-18 12:35:00,45.3,42.2,30.19,NNW,345,0.0,0.0,89,0.00,,,0.00,Wunderground v.1.15,2013-01-18 20:35:00,
2013-01-18 12:45:00,45.3,42.2,30.19,NW,309,0.0,2.0,89,0.00,,,0.00,Wunderground v.1.15,2013-01-18 20:45:00,
2013-01-18 12:55:00,45.7,42.6,30.19,NW,308,0.0,1.0,89,0.00,,,0.00,Wunderground v.1.15,2013-01-18 20:55:00,
2013-01-18 13:00:00,45.9,42.8,30.18,NW,308,0.0,0.0,89,0.00,,,0.00,Wunderground v.1.15,2013-01-18 21:00:00,
2013-01-18 13:05:00,46.0,42.9,30.18,NNW,333,0.0,0.0,89,0.00,,,0.00,Wunderground v.1.15,2013-01-18 21:05:00,
2013-01-18 13:15:00,46.5,43.1,30.18,NNW,336,1.0,3.0,88,0.00,,,0.00,Wunderground v.1.15,2013-01-18 21:15:00,
2013-01-18 13:25:00,47.4,43.7,30.18,WNW,282,1.0,1.0,87,0.00,,,0.00,Wunderground v.1.15,2013-01-18 21:25:00,
2013-01-18 13:35:00,48.3,44.3,30.17,WNW,282,0.0,1.0,86,0.00,,,0.00,Wunderground v.1.15,2013-01-18 21:35:00,
2013-01-18 13:45:00,49.1,45.1,30.17,North,349,0.0,0.0,86,0.00,,,0.00,Wunderground v.1.15,2013-01-18 21:45:00,
2013-01-18 13:55:00,49.5,45.2,30.17,North,349,0.0,0.0,85,0.00,,,0.00,Wunderground v.1.15,2013-01-18 21:55:00,
2013-01-18 14:00:00,49.7,45.4,30.17,NW,317,0.0,1.0,85,0.00,,,0.00,Wunderground v.1.15,2013-01-18 22:00:00,
2013-01-18 14:10:00,50.1,45.5,30.17,NW,317,0.0,0.0,84,0.00,,,0.00,Wunderground v.1.15,2013-01-18 22:10:00,
2013-01-18 14:15:00,50.3,45.3,30.17,NW,317,0.0,1.0,83,0.00,,,0.00,Wunderground v.1.15,2013-01-18 22:15:00,
2013-01-18 14:25:00,49.9,44.9,30.16,WNW,288,0.0,0.0,83,0.00,,,0.00,Wunderground v.1.15,2013-01-18 22:25:00,
2013-01-18 14:35:00,49.8,45.2,30.16,WNW,288,0.0,0.0,84,0.00,,,0.00,Wunderground v.1.15,2013-01-18 22:35:00,
2013-01-18 14:45:00,49.0,44.7,30.16,WNW,288,0.0,0.0,85,0.00,,,0.00,Wunderground v.1.15,2013-01-18 22:45:00,
2013-01-18 14:55:00,48.5,44.8,30.16,WNW,288,0.0,0.0,87,0.00,,,0.00,Wunderground v.1.15,2013-01-18 22:55:00,
2013-01-18 15:00:00,48.4,44.7,30.17,WNW,288,0.0,0.0,87,0.00,,,0.00,Wunderground v.1.15,2013-01-18 23:00:00,
2013-01-18 15:10:00,48.5,44.8,30.17,WNW,288,0.0,0.0,87,0.00,,,0.00,Wunderground v.1.15,2013-01-18 23:10:00,
2013-01-18 15:20:00,48.5,44.8,30.17,West,279,0.0,0.0,87,0.00,,,0.00,Wunderground v.1.15,2013-01-18 23:20:00,
2013-01-18 15:30:00,48.5,44.8,30.17,West,279,0.0,0.0,87,0.00,,,0.00,Wunderground v.1.15,2013-01-18 23:30:00,
2013-01-18 15:40:00,48.5,44.5,30.17,West,279,0.0,0.0,86,0.00,,,0.00,Wunderground v.1.15,2013-01-18 23:40:00,
2013-01-18 15:50:00,48.5,44.5,30.17,West,279,0.0,0.0,86,0.00,,,0.00,Wunderground v.1.15,2013-01-18 23:50:00,
2013-01-18 16:00:00,48.7,44.7,30.17,West,279,0.0,0.0,86,0.00,,,0.00,Wunderground v.1.15,2013-01-19 00:00:00,
2013-01-18 16:10:00,48.8,44.8,30.17,West,279,0.0,0.0,86,0.00,,,0.00,Wunderground v.1.15,2013-01-19 00:10:00,
2013-01-18 16:20:00,48.8,44.5,30.17,West,279,0.0,0.0,85,0.00,,,0.00,Wunderground v.1.15,2013-01-19 00:20:00,
2013-01-18 16:30:00,48.8,44.5,30.17,West,279,0.0,0.0,85,0.00,,,0.00,Wunderground v.1.15,2013-01-19 00:30:00,
2013-01-18 16:40:00,48.8,44.8,30.18,West,279,0.0,0.0,86,0.00,,,0.00,Wunderground v.1.15,2013-01-19 00:40:00,
2013-01-18 16:45:00,48.7,44.7,30.18,West,279,0.0,0.0,86,0.00,,,0.00,Wunderground v.1.15,2013-01-19 00:45:00,
2013-01-18 16:55:00,48.3,44.6,30.18,West,279,0.0,0.0,87,0.00,,,0.00,Wunderground v.1.15,2013-01-19 00:55:00,
2013-01-18 17:00:00,48.1,44.4,30.18,West,279,0.0,0.0,87,0.00,,,0.00,Wunderground v.1.15,2013-01-19 01:00:00,
2013-01-18 17:10:00,47.8,44.1,30.18,West,279,0.0,0.0,87,0.00,,,0.00,Wunderground v.1.15,2013-01-19 01:10:00,
2013-01-18 17:20:00,47.2,44.1,30.18,West,279,0.0,0.0,89,0.00,,,0.00,Wunderground v.1.15,2013-01-19 01:20:00,
2013-01-18 17:30:00,46.5,43.7,30.18,West,279,0.0,0.0,90,0.00,,,0.00,Wunderground v.1.15,2013-01-19 01:30:00,
2013-01-18 17:40:00,46.0,43.2,30.18,West,279,0.0,0.0,90,0.00,,,0.00,Wunderground v.1.15,2013-01-19 01:40:00,
2013-01-18 17:45:00,45.8,43.3,30.18,West,279,0.0,0.0,91,0.00,,,0.00,Wunderground v.1.15,2013-01-19 01:45:00,
2013-01-18 17:55:00,45.3,43.1,30.18,WSW,241,0.0,0.0,92,0.00,,,0.00,Wunderground v.1.15,2013-01-19 01:55:00,
2013-01-18 18:00:00,45.1,42.9,30.18,South,173,0.0,0.0,92,0.00,,,0.00,Wunderground v.1.15,2013-01-19 02:00:00,
2013-01-18 18:05:00,44.9,43.0,30.18,South,173,0.0,0.0,93,0.00,,,0.00,Wunderground v.1.15,2013-01-19 02:05:00,
2013-01-18 18:15:00,44.5,42.9,30.18,South,173,0.0,0.0,94,0.00,,,0.00,Wunderground v.1.15,2013-01-19 02:15:00,
2013-01-18 18:20:00,44.3,42.7,30.18,South,173,0.0,0.0,94,0.00,,,0.00,Wunderground v.1.15,2013-01-19 02:20:00,
2013-01-18 18:30:00,44.0,42.7,30.19,South,173,0.0,0.0,95,0.00,,,0.00,Wunderground v.1.15,2013-01-19 02:30:00,
2013-01-18 18:40:00,43.6,42.3,30.19,South,173,0.0,0.0,95,0.00,,,0.00,Wunderground v.1.15,2013-01-19 02:40:00,
2013-01-18 18:45:00,43.4,42.1,30.19,South,173,0.0,0.0,95,0.00,,,0.00,Wunderground v.1.15,2013-01-19 02:45:00,
2013-01-18 18:55:00,43.0,41.9,30.19,South,173,0.0,0.0,96,0.00,,,0.00,Wunderground v.1.15,2013-01-19 02:55:00,
2013-01-18 19:00:00,42.7,41.4,30.19,South,173,0.0,0.0,95,0.00,,,0.00,Wunderground v.1.15,2013-01-19 03:00:00,
2013-01-18 19:10:00,42.2,41.1,30.19,South,173,0.0,0.0,96,0.00,,,0.00,Wunderground v.1.15,2013-01-19 03:10:00,
2013-01-18 19:20:00,41.9,40.8,30.19,South,173,0.0,0.0,96,0.00,,,0.00,Wunderground v.1.15,2013-01-19 03:20:00,
2013-01-18 19:25:00,41.6,40.5,30.19,South,173,0.0,0.0,96,0.00,,,0.00,Wunderground v.1.15,2013-01-19 03:25:00,
2013-01-18 19:30:00,41.3,40.2,30.19,South,173,0.0,0.0,96,0.00,,,0.00,Wunderground v.1.15,2013-01-19 03:30:00,
2013-01-18 19:40:00,40.8,39.7,30.19,South,173,0.0,0.0,96,0.00,,,0.00,Wunderground v.1.15,2013-01-19 03:40:00,
2013-01-18 19:50:00,40.3,39.5,30.19,South,173,0.0,0.0,97,0.00,,,0.00,Wunderground v.1.15,2013-01-19 03:50:00,
2013-01-18 19:55:00,40.1,39.3,30.19,South,173,0.0,0.0,97,0.00,,,0.00,Wunderground v.1.15,2013-01-19 03:55:00,
2013-01-18 20:00:00,40.0,39.2,30.18,South,173,0.0,0.0,97,0.00,,,0.00,Wunderground v.1.15,2013-01-19 04:00:00,
2013-01-18 20:10:00,39.6,38.8,30.19,South,173,0.0,0.0,97,0.00,,,0.00,Wunderground v.1.15,2013-01-19 04:10:00,
2013-01-18 20:20:00,39.2,38.4,30.19,South,173,0.0,0.0,97,0.00,,,0.00,Wunderground v.1.15,2013-01-19 04:20:00,
2013-01-18 20:25:00,39.0,38.2,30.19,South,173,0.0,0.0,97,0.00,,,0.00,Wunderground v.1.15,2013-01-19 04:25:00,
2013-01-18 20:35:00,38.6,37.8,30.19,South,173,0.0,0.0,97,0.00,,,0.00,Wunderground v.1.15,2013-01-19 04:35:00,
2013-01-18 20:45:00,38.2,37.4,30.19,South,173,0.0,0.0,97,0.00,,,0.00,Wunderground v.1.15,2013-01-19 04:45:00,
2013-01-18 20:55:00,37.6,36.8,30.19,South,173,0.0,0.0,97,0.00,,,0.00,Wunderground v.1.15,2013-01-19 04:55:00,
2013-01-18 21:05:00,37.3,36.5,30.19,South,173,0.0,0.0,97,0.00,,,0.00,Wunderground v.1.15,2013-01-19 05:05:00,
2013-01-18 21:10:00,37.1,36.3,30.19,South,171,0.0,0.0,97,0.00,,,0.00,Wunderground v.1.15,2013-01-19 05:10:00,
2013-01-18 21:15:00,37.0,36.2,30.19,South,171,0.0,0.0,97,0.00,,,0.00,Wunderground v.1.15,2013-01-19 05:15:00,
2013-01-18 21:25:00,36.6,35.8,30.19,South,171,0.0,0.0,97,0.00,,,0.00,Wunderground v.1.15,2013-01-19 05:25:00,
2013-01-18 21:35:00,36.4,35.9,30.19,South,171,0.0,0.0,98,0.00,,,0.00,Wunderground v.1.15,2013-01-19 05:35:00,
2013-01-18 21:45:00,36.1,35.3,30.19,South,171,0.0,0.0,97,0.00,,,0.00,Wunderground v.1.15,2013-01-19 05:45:00,
2013-01-18 21:55:00,35.9,35.4,30.19,South,171,0.0,0.0,98,0.00,,,0.00,Wunderground v.1.15,2013-01-19 05:55:00,
2013-01-18 22:00:00,35.7,34.9,30.19,South,171,0.0,0.0,97,0.00,,,0.00,Wunderground v.1.15,2013-01-19 06:00:00,
2013-01-18 22:10:00,35.3,34.5,30.19,South,171,0.0,0.0,97,0.00,,,0.00,Wunderground v.1.15,2013-01-19 06:10:00,
2013-01-18 22:15:00,35.1,34.3,30.19,South,171,0.0,0.0,97,0.00,,,0.00,Wunderground v.1.15,2013-01-19 06:15:00,
2013-01-18 22:25:00,34.7,34.2,30.19,South,171,0.0,0.0,98,0.00,,,0.00,Wunderground v.1.15,2013-01-19 06:25:00,
2013-01-18 22:30:00,34.6,33.8,30.19,South,171,0.0,0.0,97,0.00,,,0.00,Wunderground v.1.15,2013-01-19 06:30:00,
2013-01-18 22:40:00,34.3,33.8,30.19,South,171,0.0,0.0,98,0.00,,,0.00,Wunderground v.1.15,2013-01-19 06:40:00,
2013-01-18 22:50:00,34.0,33.5,30.19,South,171,0.0,0.0,98,0.00,,,0.00,Wunderground v.1.15,2013-01-19 06:50:00,
2013-01-18 23:00:00,33.7,33.2,30.19,South,171,0.0,0.0,98,0.00,,,0.00,Wunderground v.1.15,2013-01-19 07:00:00,
2013-01-18 23:10:00,33.5,33.0,30.19,South,171,0.0,0.0,98,0.00,,,0.01,Wunderground v.1.15,2013-01-19 07:10:00,
2013-01-18 23:20:00,33.3,32.8,30.19,South,171,0.0,0.0,98,0.00,,,0.01,Wunderground v.1.15,2013-01-19 07:20:00,
2013-01-18 23:25:00,33.1,32.6,30.18,South,171,0.0,0.0,98,0.00,,,0.01,Wunderground v.1.15,2013-01-19 07:25:00,
2013-01-18 23:35:00,32.9,32.4,30.18,South,171,0.0,0.0,98,0.00,,,0.01,Wunderground v.1.15,2013-01-19 07:35:00,
2013-01-18 23:45:00,32.6,32.1,30.18,South,171,0.0,0.0,98,0.00,,,0.01,Wunderground v.1.15,2013-01-19 07:45:00,
2013-01-18 23:55:00,32.4,31.9,30.18,South,171,0.0,0.0,98,0.00,,,0.01,Wunderground v.1.15,2013-01-19 07:55:00,